DW5475 Weather Reports


time (UTC)temp
C
wind
direction
speed
KPH
gust
KPH
rain 1hr
cm
rain 24hr
cm
rain mn
cm
humidity
%
barometer
mb
20200811162002 28 237 6.4 11.3 0.00 0.00 0.00 64 1012.2
20200811161502 28 237 6.4 12.9 0.00 0.00 0.00 64 1012.1
20200811161002 28 249 4.8 14.5 0.00 0.00 0.00 63 1012.1
20200811160502 28 252 4.8 14.5 0.00 0.00 0.00 63 1012.2
20200811160002 28 266 6.4 12.9 0.00 0.00 0.00 63 1012.1
20200811155502 29 253 6.4 12.9 0.00 0.00 0.00 63 1012.1
20200811155001 29 239 6.4 14.5 0.00 0.00 0.00 62 1012.1
20200811154502 29 242 6.4 14.5 0.00 0.00 0.00 62 1012.1
20200811154002 29 243 4.8 14.5 0.00 0.00 0.00 62 1012.0
20200811153502 29 240 3.2 11.3 0.00 0.00 0.00 61 1012.2
20200811153003 30 229 3.2 9.7 0.00 0.00 0.00 59 1012.2
20200811152502 30 213 3.2 9.7 0.00 0.00 0.00 59 1012.2
20200811152002 30 217 3.2 8.0 0.00 0.00 0.00 60 1012.2
20200811151502 30 209 3.2 11.3 0.00 0.00 0.00 60 1012.2
20200811151002 29 194 3.2 11.3 0.00 0.00 0.00 60 1012.2
20200811150502 29 179 3.2 6.4 0.00 0.00 0.00 61 1012.2
20200811150002 29 163 3.2 8.0 0.00 0.00 0.00 59 1012.3
20200811145502 30 221 3.2 8.0 0.00 0.00 0.00 60 1012.4
20200811145002 30 217 3.2 8.0 0.00 0.00 0.00 60 1012.5
20200811144502 30 224 3.2 11.3 0.00 0.00 0.00 59 1012.5
20200811144002 30 245 1.6 11.3 0.00 0.00 0.00 60 1012.5
20200811143502 30 248 1.6 8.0 0.00 0.00 0.00 61 1012.6
20200811143002 29 235 1.6 6.4 0.00 0.00 0.00 62 1012.8
20200811142502 28 241 3.2 8.0 0.00 0.00 0.00 63 1012.8
20200811142002 28 254 3.2 8.0 0.00 0.00 0.00 65 1012.8
20200811141502 28 255 3.2 8.0 0.00 0.00 0.00 65 1012.8
20200811141002 27 230 3.2 9.7 0.00 0.00 0.00 67 1012.9
20200811140502 27 227 3.2 9.7 0.00 0.00 0.00 68 1012.8
20200811140002 26 219 1.6 9.7 0.00 0.00 0.00 68 1012.7
20200811135502 26 181 1.6 6.4 0.00 0.00 0.00 68 1012.8
20200811135002 26 110 1.6 8.0 0.00 0.00 0.00 69 1013.0
20200811134503 25 97 3.2 8.0 0.00 0.00 0.00 68 1013.0
20200811134002 25 108 3.2 9.7 0.00 0.00 0.00 68 1013.0
20200811133502 25 128 1.6 9.7 0.00 0.00 0.00 68 1013.2
20200811133002 26 131 1.6 9.7 0.00 0.00 0.00 68 1013.2
20200811132502 26 118 1.6 8.0 0.00 0.00 0.00 69 1013.1
20200811132002 25 103 1.6 6.4 0.00 0.00 0.00 69 1013.0
20200811131502 25 104 3.2 6.4 0.00 0.00 0.00 69 1013.2
20200811131002 25 132 3.2 11.3 0.00 0.00 0.00 70 1013.1
20200811130502 25 112 3.2 11.3 0.00 0.00 0.00 70 1013.2
20200811130002 25 99 3.2 8.0 0.00 0.00 0.00 70 1013.3
20200811125502 25 114 3.2 11.3 0.00 0.00 0.00 71 1013.3
20200811125002 25 138 3.2 11.3 0.00 0.00 0.00 72 1013.2
20200811124502 24 137 3.2 9.7 0.00 0.00 0.00 73 1013.3
20200811124002 23 120 3.2 9.7 0.00 0.00 0.00 74 1013.3
20200811123503 23 116 3.2 9.7 0.00 0.00 0.00 75 1013.3
20200811123002 23 121 3.2 9.7 0.00 0.00 0.00 75 1013.4
20200811122502 23 117 3.2 9.7 0.00 0.00 0.00 75 1013.7
20200811122002 23 112 1.6 8.0 0.00 0.00 0.00 75 1013.8
20200811121502 23 117 1.6 8.0 0.00 0.00 0.00 76 1013.6
20200811121002 23 107 1.6 6.4 0.00 0.00 0.00 76 1013.7
20200811120502 22 97 1.6 4.8 0.00 0.00 0.00 76 1013.6
20200811120002 22 88 3.2 6.4 0.00 0.00 0.00 76 1013.5
20200811115502 22 84 3.2 8.0 0.00 0.00 0.00 77 1013.6
20200811115002 22 78 3.2 8.0 0.00 0.00 0.00 77 1013.7
20200811114502 22 87 3.2 9.7 0.00 0.00 0.00 77 1013.7
20200811114002 22 90 3.2 9.7 0.00 0.00 0.00 77 1013.6
20200811113502 22 81 3.2 8.0 0.00 0.00 0.00 78 1013.6
20200811113003 22 78 3.2 8.0 0.00 0.00 0.00 78 1013.6
20200811112502 22 79 3.2 11.3 0.00 0.00 0.00 78 1013.7
20200811112002 22 80 3.2 11.3 0.00 0.00 0.00 78 1013.5
20200811111502 22 85 3.2 8.0 0.00 0.00 0.00 79 1013.4
20200811111002 22 95 3.2 8.0 0.00 0.00 0.00 79 1013.4
20200811110502 21 100 3.2 8.0 0.00 0.00 0.00 79 1013.2
20200811110002 21 95 3.2 8.0 0.00 0.00 0.00 80 1013.2
20200811105502 21 89 1.6 8.0 0.00 0.00 0.00 80 1013.2
20200811105002 21 99 1.6 8.0 0.00 0.00 0.00 80 1013.1
20200811104502 21 106 1.6 8.0 0.00 0.00 0.00 81 1013.2
20200811104003 21 96 3.2 8.0 0.00 0.00 0.00 82 1013.3
20200811103502 21 96 3.2 9.7 0.00 0.00 0.00 81 1013.4
20200811103002 21 96 3.2 11.3 0.00 0.00 0.00 81 1013.4
20200811102502 21 94 3.2 11.3 0.00 0.00 0.00 81 1013.2
20200811102002 21 90 3.2 8.0 0.00 0.00 0.00 81 1013.2
20200811101502 21 94 3.2 8.0 0.00 0.00 0.00 81 1013.2
20200811101002 21 90 3.2 8.0 0.00 0.00 0.00 81 1013.1
20200811100502 21 83 3.2 8.0 0.00 0.00 0.00 81 1013.0
20200811100003 21 81 3.2 8.0 0.00 0.00 0.00 81 1012.9
20200811095502 21 73 1.6 8.0 0.00 0.00 0.00 81 1012.9
20200811095003 21 72 3.2 8.0 0.00 0.00 0.00 81 1012.8
20200811094503 21 77 3.2 8.0 0.00 0.00 0.00 81 1012.8
20200811094002 21 82 3.2 6.4 0.00 0.00 0.00 81 1012.8
20200811093502 21 84 3.2 6.4 0.00 0.00 0.00 81 1012.9
20200811093003 21 83 3.2 6.4 0.00 0.00 0.00 81 1012.9
20200811092502 21 83 3.2 8.0 0.00 0.00 0.00 81 1012.8
20200811092002 21 86 3.2 8.0 0.00 0.00 0.00 81 1012.9
20200811091502 21 96 3.2 9.7 0.00 0.00 0.00 81 1012.8
20200811091003 21 99 3.2 9.7 0.00 0.00 0.00 81 1012.8
20200811090502 21 100 3.2 8.0 0.00 0.00 0.00 81 1012.8
20200811090003 21 91 3.2 9.7 0.00 0.00 0.00 81 1012.7
20200811085502 21 81 1.6 9.7 0.00 0.00 0.00 81 1012.9
20200811085004 21 84 1.6 6.4 0.00 0.00 0.00 82 1012.9
20200811084502 21 83 3.2 6.4 0.00 0.00 0.00 82 1012.8
20200811084002 20 64 3.2 8.0 0.00 0.00 0.00 82 1012.8
20200811083502 20 60 3.2 8.0 0.00 0.00 0.00 82 1012.7
20200811083002 20 48 3.2 8.0 0.00 0.00 0.00 83 1012.8
20200811082502 20 40 3.2 9.7 0.00 0.00 0.00 83 1012.7
20200811082002 20 44 1.6 9.7 0.00 0.00 0.00 84 1012.8
20200811081502 20 49 1.6 6.4 0.00 0.00 0.00 84 1012.7
20200811081003 20 62 3.2 8.0 0.00 0.00 0.00 84 1012.7
20200811080502 20 71 1.6 8.0 0.00 0.00 0.00 85 1012.8
20200811080003 20 71 1.6 8.0 0.00 0.00 0.00 85 1012.8
20200811075503 20 75 1.6 4.8 0.00 0.00 0.00 85 1012.7
20200811075004 19 80 1.6 4.8 0.00 0.00 0.00 86 1012.8
20200811074503 19 77 1.6 3.2 0.00 0.00 0.00 86 1012.6
20200811074002 19 59 1.6 3.2 0.00 0.00 0.00 86 1012.5
20200811073503 19 61 1.6 3.2 0.00 0.00 0.00 87 1012.6
20200811073004 19 75 3.2 6.4 0.00 0.00 0.00 87 1012.7
20200811072503 19 75 3.2 6.4 0.00 0.00 0.00 87 1012.8
20200811072003 19 77 3.2 6.4 0.00 0.00 0.00 87 1012.8
20200811071502 19 78 1.6 6.4 0.00 0.00 0.00 87 1012.8
20200811071002 19 76 1.6 6.4 0.00 0.00 0.00 87 1012.8
20200811070502 19 69 1.6 4.8 0.00 0.00 0.00 87 1012.7
20200811070003 18 68 1.6 6.4 0.00 0.00 0.00 87 1012.7
20200811065502 18 76 3.2 6.4 0.00 0.00 0.00 87 1012.6
20200811065003 18 69 3.2 6.4 0.00 0.00 0.00 87 1012.6
20200811064502 18 75 1.6 6.4 0.00 0.00 0.00 87 1012.6
20200811064002 18 89 1.6 6.4 0.00 0.00 0.00 87 1012.6
20200811063502 18 90 1.6 6.4 0.00 0.00 0.00 87 1012.6
20200811063003 18 91 1.6 6.4 0.00 0.00 0.00 87 1012.6
20200811062502 18 95 1.6 6.4 0.00 0.00 0.00 87 1012.5
20200811062002 18 95 3.2 6.4 0.00 0.00 0.00 87 1012.6
20200811061502 18 93 3.2 6.4 0.00 0.00 0.00 87 1012.5
20200811061002 18 81 3.2 8.0 0.00 0.00 0.00 87 1012.5
20200811060503 18 77 3.2 8.0 0.00 0.00 0.00 87 1012.5
20200811060003 18 87 1.6 8.0 0.00 0.00 0.00 87 1012.5
20200811055502 18 94 1.6 8.0 0.00 0.00 0.00 87 1012.4
20200811055002 18 96 1.6 8.0 0.00 0.00 0.00 87 1012.3
20200811054503 18 89 1.6 4.8 0.00 0.00 0.00 87 1012.1
20200811054002 18 81 1.6 4.8 0.00 0.00 0.00 87 1012.0
20200811053503 18 77 0.0 4.8 0.00 0.00 0.00 87 1011.9
20200811053002 18 65 1.6 1.6 0.00 0.00 0.00 87 1011.7
20200811052502 18 67 1.6 3.2 0.00 0.00 0.00 87 1011.9
20200811052002 18 70 0.0 3.2 0.00 0.00 0.00 87 1011.9
20200811051503 18 57 0.0 3.2 0.00 0.00 0.00 87 1011.8
20200811051003 18 55 0.0 3.2 0.00 0.00 0.00 87 1011.7
20200811050502 18 50 0.0 3.2 0.00 0.00 0.00 87 1011.8
20200811050003 18 47 1.6 3.2 0.00 0.00 0.00 87 1011.8
20200811045502 18 59 1.6 3.2 0.00 0.00 0.00 87 1011.9
20200811045002 18 55 0.0 3.2 0.00 0.00 0.00 87 1012.0
20200811044502 18 42 0.0 3.2 0.00 0.00 0.00 87 1011.7
20200811044002 18 51 0.0 3.2 0.00 0.00 0.00 87 1012.0
20200811043502 18 62 0.0 3.2 0.00 0.00 0.00 87 1012.1
20200811043002 18 72 0.0 3.2 0.00 0.00 0.00 88 1012.0
20200811042503 18 67 0.0 1.6 0.00 0.00 0.00 88 1012.0
20200811042002 18 65 1.6 4.8 0.00 0.00 0.00 88 1012.0
20200811041503 18 68 1.6 4.8 0.00 0.00 0.00 88 1012.0
20200811041002 18 79 0.0 3.2 0.00 0.00 0.00 88 1012.1
20200811040502 18 83 0.0 4.8 0.00 0.00 0.00 89 1012.1
20200811040003 18 86 0.0 4.8 0.00 0.00 0.00 89 1012.2
20200811035502 18 96 1.6 3.2 0.00 0.00 0.00 88 1012.3
20200811035003 18 90 1.6 3.2 0.00 0.00 0.00 88 1012.3
20200811034502 18 93 1.6 4.8 0.00 0.00 0.00 88 1012.3
20200811034002 18 98 1.6 4.8 0.00 0.00 0.00 88 1012.3
20200811033502 18 95 1.6 6.4 0.00 0.00 0.00 88 1012.3
20200811033003 18 99 1.6 6.4 0.00 0.00 0.00 88 1012.2
20200811032503 18 105 1.6 4.8 0.00 0.00 0.00 88 1012.2
20200811032002 18 98 0.0 4.8 0.00 0.00 0.00 88 1012.1
20200811031503 18 86 0.0 3.2 0.00 0.00 0.00 88 1012.0
20200811031002 18 95 0.0 3.2 0.00 0.00 0.00 88 1012.0
20200811030502 18 96 0.0 3.2 0.00 0.00 0.00 88 1012.0
20200811030003 18 91 1.6 3.2 0.00 0.00 0.00 88 1011.9
20200811025502 18 93 1.6 4.8 0.00 0.00 0.00 88 1012.0
20200811025002 18 96 1.6 4.8 0.00 0.00 0.00 88 1012.0
20200811024502 18 65 1.6 4.8 0.00 0.00 0.00 88 1012.1
20200811024002 18 47 1.6 3.2 0.00 0.00 0.00 88 1012.0
20200811023503 18 52 1.6 3.2 0.00 0.00 0.00 88 1012.1
20200811023003 18 70 1.6 6.4 0.00 0.00 0.00 88 1012.3
20200811022502 18 65 1.6 6.4 0.00 0.00 0.00 87 1012.2
20200811022002 18 59 1.6 6.4 0.00 0.00 0.00 87 1012.2
20200811021503 18 67 1.6 8.0 0.00 0.00 0.00 87 1012.3
20200811021002 18 75 1.6 8.0 0.00 0.00 0.00 87 1012.3
20200811020502 18 74 1.6 6.4 0.00 0.00 0.00 87 1012.3
20200811020003 18 73 1.6 6.4 0.00 0.00 0.00 87 1012.3
20200811015502 18 72 1.6 6.4 0.00 0.00 0.00 87 1012.4
20200811015003 18 64 1.6 4.8 0.00 0.00 0.00 87 1012.4
20200811014502 18 57 1.6 4.8 0.00 0.00 0.00 87 1012.4
20200811014002 18 67 1.6 6.4 0.00 0.00 0.00 87 1012.5
20200811013502 18 76 1.6 6.4 0.00 0.00 0.00 87 1012.6
20200811013002 18 77 1.6 6.4 0.00 0.00 0.00 87 1012.6
20200811012503 18 70 3.2 4.8 0.00 0.00 0.00 87 1012.6
20200811012002 18 68 1.6 6.4 0.00 0.00 0.00 87 1012.6
20200811011502 18 74 1.6 6.4 0.00 0.00 0.00 87 1012.7
20200811011003 18 78 1.6 6.4 0.00 0.00 0.00 87 1012.7
20200811010503 18 76 1.6 6.4 0.00 0.00 0.00 87 1012.8
20200811010003 18 77 1.6 4.8 0.00 0.00 0.00 87 1012.8
20200811005503 18 77 1.6 4.8 0.00 0.00 0.00 87 1012.8
20200811005003 18 80 1.6 4.8 0.00 0.00 0.00 87 1012.8
20200811004502 18 78 1.6 3.2 0.00 0.00 0.00 87 1012.8
20200811004002 18 82 1.6 4.8 0.00 0.00 0.00 87 1012.8
20200811003502 18 91 1.6 4.8 0.00 0.00 0.00 86 1013.0
20200811003005 18 83 1.6 6.4 0.00 0.00 0.00 86 1013.0
20200811002725 18 73 1.6 6.4 0.00 0.00 0.00 86 1013.1
20200811002004 18 67 1.6 6.4 0.00 0.00 0.00 86 1013.1
20200811001836 18 68 1.6 4.8 0.00 0.00 0.00 86 1013.1
20200811000536 18 91 1.6 4.8 0.00 0.00 0.00 86 1013.2
20200811000359 18 81 1.6 4.8 0.00 0.00 0.00 86 1013.2
20200810235640 19 79 1.6 4.8 0.00 0.00 0.00 86 1013.3
20200810235022 19 43 1.6 3.2 0.00 0.00 0.00 86 1013.3
20200810234741 19 94 1.6 6.4 0.00 0.00 0.00 86 1013.3
20200810234140 18 101 1.6 6.4 0.00 0.00 0.00 86 1013.4
20200810233525 18 98 1.6 4.8 0.00 0.00 0.00 86 1013.5
20200810232710 19 80 1.6 4.8 0.00 0.00 0.00 86 1013.5
20200810232012 19 70 1.6 4.8 0.00 0.00 0.00 85 1013.4
20200810231100 19 90 1.6 3.2 0.00 0.00 0.00 85 1013.4
20200810230314 19 89 0.0 4.8 0.00 0.00 0.00 85 1013.4
20200810225215 19 94 0.0 4.8 0.00 0.00 0.00 84 1013.8
20200810223832 19 86 0.0 3.2 0.00 0.00 0.00 84 1013.7
20200810223234 19 47 0.0 3.2 0.00 0.00 0.00 84 1013.4
20200810222701 19 34 0.0 1.6 0.00 0.00 0.00 84 1013.5
20200810222024 19 116 0.0 1.6 0.00 0.00 0.00 84 1013.5
20200810221504 19 103 0.0 3.2 0.00 0.00 0.00 84 1013.7
20200810221004 20 95 0.0 3.2 0.00 0.00 0.00 83 1013.8
20200810220503 20 107 0.0 3.2 0.00 0.00 0.00 83 1013.6
20200810215805 20 214 0.0 3.2 0.00 0.00 0.00 83 1013.6
20200810214704 20 265 0.0 6.4 0.00 0.00 0.00 83 1013.6
20200810214005 20 239 0.0 3.2 0.00 0.00 0.00 83 1013.6
20200810213502 20 190 0.0 3.2 0.00 0.00 0.00 82 1013.7
20200810213003 20 197 0.0 3.2 0.00 0.00 0.00 82 1013.7
20200810212504 20 212 0.0 3.2 0.00 0.00 0.00 82 1013.5
20200810212002 20 182 0.0 3.2 0.00 0.00 0.00 82 1013.4
20200810211502 20 179 0.0 3.2 0.00 0.00 0.00 81 1013.4
20200810210902 20 162 0.0 1.6 0.00 0.00 0.00 80 1013.5
20200810205737 20 213 0.0 3.2 0.00 0.00 0.00 80 1013.5
20200810205002 20 220 1.6 3.2 0.00 0.00 0.00 80 1013.4
20200810204503 20 230 1.6 3.2 0.00 0.00 0.00 80 1013.3
20200810204002 20 242 1.6 3.2 0.00 0.00 0.00 79 1013.3
20200810203502 20 257 1.6 4.8 0.00 0.00 0.00 79 1013.4
20200810203002 20 239 1.6 4.8 0.00 0.00 0.00 79 1013.3
20200810202503 20 229 3.2 6.4 0.00 0.00 0.00 78 1013.3
20200810202002 21 243 3.2 6.4 0.00 0.00 0.00 78 1013.3
20200810201505 21 247 1.6 6.4 0.00 0.00 0.00 77 1013.2
20200810201003 21 253 1.6 6.4 0.00 0.00 0.00 77 1013.2
20200810200503 21 243 1.6 4.8 0.00 0.00 0.00 76 1013.1
20200810200003 21 224 1.6 4.8 0.00 0.00 0.00 76 1013.2
20200810195502 21 221 1.6 6.4 0.00 0.00 0.00 76 1013.2
20200810195003 21 212 1.6 6.4 0.00 0.00 0.00 76 1013.1
20200810194503 21 218 1.6 4.8 0.00 0.00 0.00 75 1013.1
20200810194003 21 249 1.6 4.8 0.00 0.00 0.00 75 1013.1
20200810193502 21 246 3.2 4.8 0.00 0.00 0.00 75 1013.1
20200810193003 22 245 3.2 6.4 0.00 0.00 0.00 75 1013.1
20200810192502 22 245 3.2 6.4 0.00 0.00 0.00 74 1013.0
20200810192003 22 245 3.2 6.4 0.00 0.00 0.00 74 1013.0
20200810191502 22 247 3.2 6.4 0.00 0.00 0.00 73 1013.0
20200810191003 22 243 3.2 8.0 0.00 0.00 0.00 73 1013.0
20200810190502 22 244 3.2 8.0 0.00 0.00 0.00 73 1013.0
20200810190003 22 242 1.6 6.4 0.00 0.00 0.00 73 1013.0
20200810185502 22 252 1.6 6.4 0.00 0.00 0.00 73 1012.9
20200810185003 22 258 3.2 9.7 0.00 0.00 0.00 73 1012.9
20200810184503 22 250 3.2 9.7 0.00 0.00 0.00 73 1012.9
20200810184003 22 247 3.2 9.7 0.00 0.00 0.00 73 1013.0
20200810183502 22 240 1.6 9.7 0.00 0.00 0.00 73 1013.0
20200810183003 22 250 3.2 9.7 0.00 0.00 0.00 73 1013.0
20200810182502 22 272 4.8 8.0 0.00 0.00 0.00 73 1013.0
20200810182004 23 249 4.8 9.7 0.00 0.00 0.00 73 1012.9
20200810181503 23 246 4.8 9.7 0.00 0.00 0.00 72 1013.0
20200810181003 23 250 3.2 9.7 0.00 0.00 0.00 72 1013.0
20200810180502 23 244 3.2 8.0 0.00 0.00 0.00 73 1013.0
20200810180003 23 245 4.8 9.7 0.00 0.00 0.00 73 1013.0
20200810175502 23 249 4.8 9.7 0.00 0.00 0.00 72 1013.0
20200810175003 23 259 4.8 11.3 0.00 0.00 0.00 72 1013.1
20200810174506 23 261 4.8 11.3 0.00 0.00 0.00 72 1013.2
20200810174002 23 247 4.8 9.7 0.00 0.00 0.00 72 1013.2
20200810173503 23 244 4.8 9.7 0.00 0.00 0.00 72 1013.3
20200810173003 23 238 4.8 11.3 0.00 0.00 0.00 72 1013.2
20200810172502 23 233 4.8 11.3 0.00 0.00 0.00 71 1013.3
20200810172003 23 241 4.8 9.7 0.00 0.00 0.00 71 1013.3
20200810171502 23 248 4.8 9.7 0.00 0.00 0.00 71 1013.2
20200810171003 23 256 6.4 16.1 0.00 0.00 0.00 71 1013.2
20200810170502 23 248 6.4 16.1 0.00 0.00 0.00 70 1013.2
20200810170003 23 243 6.4 12.9 0.00 0.00 0.00 70 1013.2
20200810165502 23 251 6.4 12.9 0.00 0.00 0.00 70 1013.2
20200810165002 24 247 6.4 14.5 0.00 0.00 0.00 70 1013.2
20200810164503 24 238 6.4 14.5 0.00 0.00 0.00 69 1013.1
20200810164003 24 238 4.8 12.9 0.00 0.00 0.00 69 1013.0
20200810163503 25 248 4.8 12.9 0.00 0.00 0.00 69 1013.0
20200810163214 25 272 4.8 9.7 0.00 0.00 0.00 68 1013.0
20200810162953 25 280 4.8 11.3 0.00 0.00 0.00 68 1013.0
20200810162457 25 264 4.8 11.3 0.00 0.00 0.00 67 1013.0